| time (UTC) | temp F | wind direction | speed knots | gust knots | rain 1hr in | rain 24hr in | rain mn in | humidity % | barometer mb |
| 20260506231904 | 52 | 5 | 3.5 | 7.8 | 0.00 | 0.40 | 0.40 | 91 | 1005.3 |
| 20260506231404 | 52 | 8 | 4.3 | 7.8 | 0.00 | 0.40 | 0.40 | 90 | 1005.3 |
| 20260506230903 | 53 | 8 | 4.3 | 7.0 | 0.00 | 0.40 | 0.40 | 90 | 1005.3 |
| 20260506230403 | 54 | 39 | 4.3 | 7.8 | 0.00 | 0.40 | 0.40 | 90 | 1005.1 |
| 20260506225904 | 55 | 17 | 5.2 | 11.3 | 0.00 | 0.40 | 0.40 | 89 | 1004.9 |
| 20260506225404 | 57 | 4 | 5.2 | 15.6 | 0.00 | 0.40 | 0.40 | 88 | 1004.8 |
| 20260506224904 | 59 | 358 | 6.1 | 12.2 | 0.00 | 0.40 | 0.40 | 90 | 1004.5 |
| 20260506224403 | 59 | 344 | 8.7 | 12.2 | 0.00 | 0.40 | 0.40 | 90 | 1004.4 |
| 20260506223904 | 59 | 357 | 6.1 | 10.4 | 0.00 | 0.40 | 0.40 | 90 | 1004.3 |
| 20260506223404 | 60 | 352 | 5.2 | 10.4 | 0.00 | 0.40 | 0.40 | 90 | 1004.1 |
| 20260506222404 | 60 | 351 | 6.1 | 13.9 | 0.00 | 0.40 | 0.40 | 90 | 1004.0 |
| 20260506221403 | 60 | 349 | 5.2 | 8.7 | 0.00 | 0.40 | 0.40 | 90 | 1003.9 |
| 20260506220905 | 60 | 345 | 2.6 | 6.1 | 0.00 | 0.40 | 0.40 | 90 | 1003.8 |
| 20260506220404 | 60 | 322 | 4.3 | 7.8 | 0.00 | 0.40 | 0.40 | 90 | 1003.7 |
| 20260506214904 | 60 | 347 | 5.2 | 7.8 | 0.00 | 0.40 | 0.40 | 90 | 1003.5 |
| 20260506213403 | 60 | 311 | 4.3 | 7.8 | 0.00 | 0.40 | 0.40 | 90 | 1003.4 |
| 20260506212903 | 61 | 344 | 5.2 | 7.8 | 0.00 | 0.40 | 0.40 | 90 | 1003.4 |
| 20260506212404 | 60 | 263 | 3.5 | 7.0 | 0.00 | 0.40 | 0.40 | 90 | 1003.3 |
| 20260506211904 | 60 | 277 | 4.3 | 7.8 | 0.00 | 0.40 | 0.40 | 89 | 1003.3 |
| 20260506211404 | 60 | 289 | 2.6 | 6.1 | 0.00 | 0.40 | 0.40 | 90 | 1003.0 |
| 20260506210903 | 60 | 342 | 4.3 | 7.8 | 0.00 | 0.40 | 0.40 | 90 | 1003.1 |
| 20260506210404 | 60 | 330 | 4.3 | 7.8 | 0.00 | 0.40 | 0.40 | 90 | 1003.0 |
| 20260506205904 | 60 | 317 | 4.3 | 7.0 | 0.00 | 0.40 | 0.40 | 90 | 1003.0 |
| 20260506205403 | 60 | 330 | 5.2 | 10.4 | 0.00 | 0.40 | 0.40 | 90 | 1003.0 |
| 20260506204903 | 60 | 350 | 7.0 | 11.3 | 0.00 | 0.40 | 0.40 | 90 | 1003.0 |
| 20260506204404 | 60 | 0 | 3.5 | 7.0 | 0.00 | 0.40 | 0.40 | 90 | 1003.0 |
| 20260506203904 | 60 | 339 | 3.5 | 7.8 | 0.00 | 0.40 | 0.40 | 90 | 1002.9 |
| 20260506203404 | 60 | 263 | 4.3 | 8.7 | 0.00 | 0.40 | 0.40 | 90 | 1002.9 |
| 20260506202903 | 60 | 285 | 4.3 | 7.8 | 0.00 | 0.40 | 0.40 | 90 | 1002.8 |
| 20260506202404 | 60 | 263 | 3.5 | 10.4 | 0.00 | 0.40 | 0.40 | 90 | 1002.9 |
| 20260506201904 | 60 | 323 | 4.3 | 7.0 | 0.00 | 0.40 | 0.40 | 90 | 1002.8 |
| 20260506200903 | 59 | 342 | 2.6 | 6.1 | 0.00 | 0.40 | 0.40 | 90 | 1002.8 |
| 20260506200403 | 59 | 342 | 4.3 | 7.8 | 0.00 | 0.40 | 0.40 | 90 | 1002.8 |
| 20260506195904 | 59 | 298 | 3.5 | 10.4 | 0.00 | 0.40 | 0.40 | 90 | 1002.9 |
| 20260506195404 | 59 | 254 | 5.2 | 11.3 | 0.00 | 0.40 | 0.40 | 90 | 1002.9 |
| 20260506194904 | 59 | 254 | 5.2 | 11.3 | 0.00 | 0.40 | 0.40 | 89 | 1003.0 |
| 20260506194403 | 59 | 275 | 4.3 | 10.4 | 0.00 | 0.40 | 0.40 | 89 | 1003.0 |
| 20260506193404 | 59 | 251 | 3.5 | 10.4 | 0.00 | 0.40 | 0.40 | 88 | 1003.0 |
| 20260506192406 | 59 | 279 | 5.2 | 10.4 | 0.00 | 0.40 | 0.40 | 87 | 1003.2 |
| 20260506190905 | 59 | 230 | 5.2 | 12.2 | 0.00 | 0.40 | 0.40 | 87 | 1003.1 |
| 20260506190405 | 59 | 262 | 2.6 | 8.7 | 0.00 | 0.40 | 0.40 | 87 | 1003.0 |
| 20260506185905 | 58 | 226 | 5.2 | 10.4 | 0.00 | 0.40 | 0.40 | 87 | 1003.1 |
| 20260506185406 | 58 | 222 | 4.3 | 7.8 | 0.00 | 0.40 | 0.40 | 87 | 1003.0 |
| 20260506184905 | 58 | 221 | 4.3 | 10.4 | 0.00 | 0.40 | 0.40 | 87 | 1003.1 |
| 20260506183905 | 58 | 219 | 4.3 | 11.3 | 0.01 | 0.40 | 0.40 | 87 | 1003.0 |
| 20260506183405 | 58 | 209 | 5.2 | 10.4 | 0.01 | 0.40 | 0.40 | 87 | 1003.2 |
| 20260506182906 | 58 | 214 | 5.2 | 10.4 | 0.02 | 0.40 | 0.40 | 87 | 1003.3 |
| 20260506182405 | 58 | 243 | 5.2 | 10.4 | 0.02 | 0.40 | 0.40 | 87 | 1003.3 |
| 20260506181905 | 57 | 226 | 5.2 | 12.2 | 0.03 | 0.40 | 0.40 | 87 | 1003.4 |
| 20260506181405 | 57 | 228 | 7.0 | 11.3 | 0.04 | 0.40 | 0.40 | 87 | 1003.4 |
| 20260506180906 | 57 | 218 | 5.2 | 10.4 | 0.04 | 0.40 | 0.40 | 87 | 1003.4 |
| 20260506180405 | 57 | 220 | 4.3 | 10.4 | 0.05 | 0.40 | 0.40 | 87 | 1003.4 |
| 20260506175905 | 57 | 204 | 4.3 | 12.2 | 0.06 | 0.40 | 0.40 | 88 | 1003.4 |
| 20260506174405 | 57 | 281 | 4.3 | 7.8 | 0.06 | 0.39 | 0.39 | 88 | 1003.5 |
| 20260506173406 | 57 | 208 | 4.3 | 8.7 | 0.08 | 0.39 | 0.39 | 88 | 1003.3 |
| 20260506172905 | 57 | 211 | 5.2 | 8.7 | 0.08 | 0.38 | 0.38 | 88 | 1003.4 |
| 20260506172405 | 57 | 206 | 5.2 | 11.3 | 0.08 | 0.38 | 0.38 | 88 | 1003.4 |
| 20260506171905 | 57 | 235 | 5.2 | 10.4 | 0.07 | 0.37 | 0.37 | 88 | 1003.5 |
| 20260506171405 | 57 | 214 | 5.2 | 11.3 | 0.06 | 0.36 | 0.36 | 88 | 1003.5 |
| 20260506170905 | 57 | 212 | 6.1 | 10.4 | 0.07 | 0.36 | 0.36 | 88 | 1003.6 |
| 20260506170405 | 57 | 219 | 5.2 | 8.7 | 0.06 | 0.35 | 0.35 | 88 | 1003.6 |
| 20260506165406 | 57 | 217 | 6.1 | 13.9 | 0.05 | 0.34 | 0.34 | 88 | 1003.3 |
| 20260506164405 | 57 | 212 | 5.2 | 15.6 | 0.05 | 0.33 | 0.33 | 88 | 1003.2 |
| 20260506163905 | 57 | 211 | 5.2 | 10.4 | 0.05 | 0.33 | 0.33 | 88 | 1003.3 |
| 20260506163406 | 57 | 221 | 5.2 | 10.4 | 0.04 | 0.31 | 0.31 | 88 | 1003.3 |
| 20260506162905 | 57 | 211 | 8.7 | 15.6 | 0.04 | 0.30 | 0.30 | 88 | 1003.4 |
| 20260506162405 | 57 | 220 | 7.0 | 14.8 | 0.04 | 0.30 | 0.30 | 88 | 1003.4 |
| 20260506161405 | 57 | 210 | 6.1 | 14.8 | 0.07 | 0.30 | 0.30 | 88 | 1003.3 |
| 20260506160905 | 57 | 193 | 6.1 | 14.8 | 0.07 | 0.29 | 0.29 | 88 | 1003.1 |
| 20260506160406 | 57 | 209 | 6.1 | 14.8 | 0.09 | 0.29 | 0.29 | 89 | 1003.2 |
| 20260506155905 | 57 | 211 | 9.6 | 15.6 | 0.10 | 0.29 | 0.29 | 89 | 1003.1 |
| 20260506154905 | 57 | 196 | 6.1 | 13.0 | 0.13 | 0.29 | 0.29 | 89 | 1003.3 |
| 20260506154405 | 57 | 209 | 6.1 | 12.2 | 0.13 | 0.28 | 0.28 | 89 | 1003.2 |
| 20260506153905 | 57 | 204 | 6.1 | 11.3 | 0.14 | 0.28 | 0.28 | 89 | 1003.5 |
| 20260506153405 | 57 | 206 | 7.0 | 12.2 | 0.14 | 0.27 | 0.27 | 89 | 1003.5 |
| 20260506152404 | 57 | 201 | 6.1 | 13.9 | 0.13 | 0.26 | 0.26 | 89 | 1003.6 |
| 20260506151905 | 57 | 207 | 6.1 | 12.2 | 0.12 | 0.24 | 0.24 | 89 | 1003.6 |
| 20260506151405 | 57 | 207 | 7.8 | 15.6 | 0.11 | 0.23 | 0.23 | 89 | 1003.7 |
| 20260506150405 | 57 | 215 | 7.8 | 13.9 | 0.09 | 0.20 | 0.20 | 89 | 1003.9 |
| 20260506145905 | 57 | 218 | 7.8 | 12.2 | 0.09 | 0.19 | 0.19 | 89 | 1003.7 |
| 20260506145405 | 57 | 209 | 7.8 | 13.9 | 0.08 | 0.18 | 0.18 | 89 | 1003.5 |
| 20260506144905 | 57 | 210 | 6.1 | 13.0 | 0.07 | 0.16 | 0.16 | 89 | 1003.4 |
| 20260506144405 | 57 | 210 | 8.7 | 13.9 | 0.06 | 0.15 | 0.15 | 89 | 1003.3 |
| 20260506143905 | 57 | 197 | 7.0 | 13.9 | 0.06 | 0.14 | 0.14 | 90 | 1003.6 |
| 20260506143405 | 57 | 208 | 7.0 | 10.4 | 0.05 | 0.13 | 0.13 | 90 | 1003.4 |
| 20260506142405 | 57 | 196 | 5.2 | 11.3 | 0.07 | 0.13 | 0.13 | 90 | 1003.2 |
| 20260506141905 | 57 | 207 | 6.1 | 10.4 | 0.06 | 0.12 | 0.12 | 90 | 1003.4 |
| 20260506141405 | 57 | 214 | 7.0 | 12.2 | 0.07 | 0.12 | 0.12 | 90 | 1003.5 |
| 20260506140905 | 57 | 235 | 5.2 | 12.2 | 0.07 | 0.11 | 0.11 | 90 | 1003.4 |
| 20260506140405 | 57 | 215 | 6.1 | 12.2 | 0.08 | 0.11 | 0.11 | 90 | 1003.9 |
| 20260506135905 | 57 | 215 | 7.0 | 13.0 | 0.08 | 0.10 | 0.10 | 90 | 1003.6 |
| 20260506135405 | 57 | 206 | 7.0 | 10.4 | 0.09 | 0.10 | 0.10 | 90 | 1003.9 |
| 20260506133905 | 57 | 213 | 6.1 | 10.4 | 0.07 | 0.08 | 0.08 | 90 | 1003.9 |
| 20260506133405 | 57 | 206 | 6.1 | 13.0 | 0.08 | 0.08 | 0.08 | 90 | 1004.1 |
| 20260506132905 | 57 | 206 | 4.3 | 7.0 | 0.07 | 0.07 | 0.07 | 90 | 1004.2 |
| 20260506132405 | 57 | 203 | 4.3 | 6.1 | 0.06 | 0.06 | 0.06 | 90 | 1004.2 |
| 20260506131905 | 57 | 216 | 4.3 | 7.0 | 0.06 | 0.06 | 0.06 | 90 | 1004.3 |
| 20260506131405 | 57 | 210 | 5.2 | 10.4 | 0.05 | 0.05 | 0.05 | 90 | 1004.3 |
| 20260506130905 | 57 | 213 | 5.2 | 7.8 | 0.04 | 0.04 | 0.04 | 90 | 1004.4 |
| 20260506130405 | 57 | 226 | 7.0 | 11.3 | 0.03 | 0.03 | 0.03 | 90 | 1004.4 |
| 20260506125905 | 57 | 221 | 5.2 | 10.4 | 0.02 | 0.02 | 0.02 | 89 | 1004.4 |
| 20260506124405 | 58 | 214 | 6.1 | 14.8 | 0.01 | 0.01 | 0.01 | 89 | 1004.4 |
| 20260506123905 | 58 | 214 | 6.1 | 10.4 | 0.01 | 0.01 | 0.01 | 89 | 1004.4 |
| 20260506123404 | 58 | 213 | 7.0 | 10.4 | 0.00 | 0.00 | 0.00 | 88 | 1004.4 |
| 20260506122905 | 58 | 212 | 5.2 | 10.4 | 0.00 | 0.00 | 0.00 | 88 | 1004.4 |
| 20260506120905 | 59 | 212 | 6.1 | 11.3 | 0.00 | 0.00 | 0.00 | 86 | 1004.1 |
| 20260506120404 | 59 | 209 | 7.8 | 12.2 | 0.00 | 0.00 | 0.00 | 86 | 1004.0 |
| 20260506115905 | 59 | 196 | 6.1 | 11.3 | 0.00 | 0.00 | 0.00 | 86 | 1004.0 |
| 20260506115405 | 59 | 202 | 7.0 | 12.2 | 0.00 | 0.00 | 0.00 | 85 | 1003.9 |
| 20260506114905 | 59 | 203 | 6.1 | 12.2 | 0.00 | 0.00 | 0.00 | 85 | 1003.9 |
| 20260506114405 | 60 | 207 | 7.8 | 15.6 | 0.00 | 0.00 | 0.00 | 84 | 1003.9 |
| 20260506113905 | 60 | 192 | 7.8 | 15.6 | 0.00 | 0.00 | 0.00 | 84 | 1003.8 |
| 20260506113404 | 60 | 191 | 6.1 | 13.0 | 0.00 | 0.00 | 0.00 | 84 | 1003.8 |
| 20260506112905 | 60 | 193 | 7.0 | 13.0 | 0.00 | 0.00 | 0.00 | 83 | 1003.8 |
| 20260506112405 | 60 | 205 | 6.1 | 15.6 | 0.00 | 0.00 | 0.00 | 83 | 1003.8 |
| 20260506111405 | 60 | 187 | 7.0 | 12.2 | 0.00 | 0.00 | 0.00 | 82 | 1003.9 |
| 20260506110905 | 60 | 214 | 7.8 | 14.8 | 0.00 | 0.00 | 0.00 | 82 | 1003.9 |
| 20260506110405 | 60 | 196 | 6.1 | 13.0 | 0.00 | 0.00 | 0.00 | 81 | 1003.8 |
| 20260506105905 | 60 | 211 | 6.1 | 14.8 | 0.00 | 0.00 | 0.00 | 80 | 1003.8 |
| 20260506105404 | 60 | 199 | 5.2 | 11.3 | 0.00 | 0.00 | 0.00 | 80 | 1003.6 |
| 20260506104905 | 61 | 199 | 5.2 | 11.3 | 0.00 | 0.00 | 0.00 | 80 | 1003.6 |
| 20260506104405 | 61 | 194 | 6.1 | 10.4 | 0.00 | 0.00 | 0.00 | 79 | 1003.6 |
| 20260506103904 | 61 | 192 | 4.3 | 10.4 | 0.00 | 0.00 | 0.00 | 79 | 1003.5 |
| 20260506103404 | 61 | 200 | 5.2 | 10.4 | 0.00 | 0.00 | 0.00 | 78 | 1003.3 |
| 20260506102405 | 61 | 199 | 5.2 | 7.8 | 0.00 | 0.00 | 0.00 | 77 | 1003.3 |
| 20260506101904 | 61 | 186 | 4.3 | 7.0 | 0.00 | 0.00 | 0.00 | 77 | 1003.1 |
| 20260506100905 | 61 | 188 | 3.5 | 7.8 | 0.00 | 0.00 | 0.00 | 76 | 1003.3 |
| 20260506100406 | 61 | 190 | 5.2 | 10.4 | 0.00 | 0.00 | 0.00 | 75 | 1003.3 |
| 20260506095905 | 61 | 196 | 4.3 | 7.8 | 0.00 | 0.00 | 0.00 | 75 | 1003.3 |
| 20260506095404 | 61 | 194 | 4.3 | 7.8 | 0.00 | 0.00 | 0.00 | 74 | 1003.3 |
| 20260506094405 | 61 | 200 | 5.2 | 7.0 | 0.00 | 0.00 | 0.00 | 73 | 1003.6 |
| 20260506093905 | 61 | 196 | 5.2 | 10.4 | 0.00 | 0.00 | 0.00 | 73 | 1003.6 |
| 20260506092905 | 61 | 205 | 5.2 | 8.7 | 0.00 | 0.00 | 0.00 | 73 | 1003.7 |
| 20260506092405 | 61 | 203 | 5.2 | 7.8 | 0.00 | 0.00 | 0.00 | 72 | 1003.7 |
| 20260506091904 | 61 | 200 | 5.2 | 8.7 | 0.00 | 0.00 | 0.00 | 72 | 1003.8 |
| 20260506090905 | 61 | 204 | 5.2 | 10.4 | 0.00 | 0.00 | 0.00 | 72 | 1003.8 |
| 20260506090405 | 61 | 196 | 4.3 | 7.8 | 0.00 | 0.00 | 0.00 | 71 | 1003.7 |
| 20260506085905 | 62 | 191 | 5.2 | 10.4 | 0.00 | 0.00 | 0.00 | 71 | 1003.8 |
| 20260506085405 | 62 | 194 | 5.2 | 10.4 | 0.00 | 0.00 | 0.00 | 70 | 1003.8 |
| 20260506084904 | 62 | 200 | 5.2 | 11.3 | 0.00 | 0.00 | 0.00 | 70 | 1003.9 |
| 20260506084404 | 62 | 198 | 6.1 | 10.4 | 0.00 | 0.00 | 0.00 | 70 | 1003.8 |
| 20260506083904 | 62 | 187 | 6.1 | 11.3 | 0.00 | 0.00 | 0.00 | 70 | 1003.6 |
| 20260506083404 | 62 | 189 | 5.2 | 10.4 | 0.00 | 0.00 | 0.00 | 70 | 1003.8 |
| 20260506082905 | 62 | 210 | 5.2 | 11.3 | 0.00 | 0.00 | 0.00 | 69 | 1003.6 |
| 20260506082405 | 62 | 190 | 5.2 | 11.3 | 0.00 | 0.00 | 0.00 | 69 | 1003.8 |
| 20260506081905 | 62 | 209 | 5.2 | 12.2 | 0.00 | 0.00 | 0.00 | 69 | 1003.9 |
| 20260506081404 | 62 | 200 | 6.1 | 12.2 | 0.00 | 0.00 | 0.00 | 68 | 1003.9 |
| 20260506080905 | 63 | 208 | 5.2 | 10.4 | 0.00 | 0.00 | 0.00 | 68 | 1003.9 |
| 20260506080404 | 63 | 204 | 5.2 | 13.9 | 0.00 | 0.00 | 0.00 | 67 | 1003.7 |
| 20260506073404 | 63 | 202 | 5.2 | 11.3 | 0.00 | 0.02 | 0.00 | 65 | 1003.9 |
| 20260506072904 | 63 | 204 | 5.2 | 10.4 | 0.00 | 0.02 | 0.00 | 65 | 1004.0 |
| 20260506072405 | 63 | 213 | 6.1 | 10.4 | 0.00 | 0.02 | 0.00 | 65 | 1004.2 |
| 20260506071905 | 63 | 206 | 5.2 | 10.4 | 0.00 | 0.02 | 0.00 | 65 | 1004.3 |
| 20260506071405 | 64 | 208 | 6.1 | 10.4 | 0.00 | 0.02 | 0.00 | 65 | 1004.2 |
| 20260506070905 | 64 | 212 | 5.2 | 10.4 | 0.00 | 0.02 | 0.00 | 64 | 1004.3 |
| 20260506070405 | 64 | 192 | 6.1 | 10.4 | 0.00 | 0.02 | 0.00 | 64 | 1004.3 |
| 20260506062404 | 64 | 219 | 7.0 | 10.4 | 0.00 | 0.02 | 0.00 | 63 | 1004.8 |
| 20260506061905 | 64 | 212 | 7.8 | 11.3 | 0.00 | 0.02 | 0.00 | 63 | 1004.8 |
| 20260506061405 | 64 | 213 | 7.8 | 12.2 | 0.00 | 0.02 | 0.00 | 63 | 1004.9 |
| 20260506060905 | 63 | 212 | 6.1 | 11.3 | 0.00 | 0.02 | 0.00 | 63 | 1004.8 |
| 20260506060404 | 63 | 203 | 7.8 | 11.3 | 0.00 | 0.02 | 0.00 | 63 | 1004.9 |
| 20260506051404 | 64 | 212 | 7.0 | 11.3 | 0.00 | 0.02 | 0.00 | 60 | 1005.4 |
| 20260506050904 | 64 | 213 | 6.1 | 12.2 | 0.00 | 0.02 | 0.00 | 60 | 1005.4 |
| 20260506044904 | 64 | 214 | 7.0 | 13.9 | 0.00 | 0.02 | 0.00 | 59 | 1005.4 |
| 20260506044404 | 64 | 201 | 5.2 | 13.0 | 0.00 | 0.02 | 0.00 | 60 | 1005.4 |
| 20260506043904 | 64 | 211 | 6.1 | 12.2 | 0.00 | 0.02 | 0.00 | 59 | 1005.3 |
| 20260506042905 | 64 | 200 | 6.1 | 10.4 | 0.00 | 0.02 | 0.00 | 59 | 1005.4 |
| 20260506042405 | 64 | 203 | 4.3 | 7.0 | 0.00 | 0.02 | 0.00 | 59 | 1005.4 |
| 20260506041905 | 65 | 207 | 5.2 | 7.8 | 0.00 | 0.02 | 0.00 | 59 | 1005.4 |
| 20260506041405 | 65 | 204 | 4.3 | 11.3 | 0.00 | 0.02 | 0.00 | 59 | 1005.6 |
| 20260506040904 | 65 | 202 | 5.2 | 7.8 | 0.00 | 0.02 | 0.00 | 59 | 1005.5 |
| 20260506035904 | 65 | 207 | 6.1 | 11.3 | 0.00 | 0.02 | 0.02 | 58 | 1005.4 |
| 20260506035404 | 65 | 206 | 5.2 | 10.4 | 0.00 | 0.02 | 0.02 | 58 | 1005.5 |
| 20260506034404 | 66 | 212 | 5.2 | 10.4 | 0.00 | 0.02 | 0.02 | 58 | 1005.5 |
| 20260506033904 | 66 | 207 | 6.1 | 10.4 | 0.00 | 0.02 | 0.02 | 58 | 1005.4 |
| 20260506033404 | 66 | 205 | 5.2 | 10.4 | 0.00 | 0.02 | 0.02 | 58 | 1005.4 |
| 20260506032904 | 66 | 204 | 5.2 | 8.7 | 0.00 | 0.02 | 0.02 | 58 | 1005.4 |
| 20260506032404 | 66 | 217 | 4.3 | 7.8 | 0.00 | 0.02 | 0.02 | 58 | 1005.4 |
| 20260506031405 | 66 | 209 | 3.5 | 7.0 | 0.00 | 0.02 | 0.02 | 58 | 1005.4 |
| 20260506030904 | 66 | 208 | 5.2 | 8.7 | 0.00 | 0.02 | 0.02 | 58 | 1005.5 |
| 20260506030405 | 67 | 198 | 4.3 | 7.8 | 0.00 | 0.02 | 0.02 | 58 | 1005.4 |
| 20260506025904 | 67 | 214 | 6.1 | 10.4 | 0.00 | 0.02 | 0.02 | 58 | 1005.5 |
| 20260506025404 | 67 | 210 | 5.2 | 10.4 | 0.00 | 0.02 | 0.02 | 57 | 1005.4 |
| 20260506024404 | 67 | 208 | 5.2 | 10.4 | 0.00 | 0.02 | 0.02 | 57 | 1005.6 |
| 20260506023905 | 67 | 214 | 5.2 | 10.4 | 0.00 | 0.02 | 0.02 | 57 | 1005.6 |
| 20260506023404 | 67 | 211 | 6.1 | 8.7 | 0.00 | 0.02 | 0.02 | 57 | 1005.6 |
| 20260506022405 | 67 | 215 | 4.3 | 7.8 | 0.00 | 0.02 | 0.02 | 58 | 1005.6 |
| 20260506021904 | 68 | 219 | 4.3 | 7.8 | 0.00 | 0.02 | 0.02 | 58 | 1005.6 |
| 20260506021404 | 68 | 204 | 5.2 | 7.8 | 0.00 | 0.02 | 0.02 | 57 | 1005.6 |
| 20260506020404 | 68 | 206 | 4.3 | 7.8 | 0.00 | 0.02 | 0.02 | 57 | 1005.7 |
| 20260506015904 | 68 | 204 | 4.3 | 7.0 | 0.00 | 0.02 | 0.02 | 57 | 1005.7 |
| 20260506014904 | 69 | 215 | 3.5 | 6.1 | 0.00 | 0.02 | 0.02 | 57 | 1005.6 |
| 20260506013904 | 69 | 209 | 4.3 | 7.0 | 0.00 | 0.02 | 0.02 | 56 | 1005.6 |
| 20260506013404 | 69 | 207 | 4.3 | 7.8 | 0.00 | 0.02 | 0.02 | 56 | 1005.6 |
| 20260506012904 | 69 | 221 | 4.3 | 10.4 | 0.00 | 0.02 | 0.02 | 56 | 1005.6 |
| 20260506012405 | 69 | 206 | 4.3 | 10.4 | 0.00 | 0.02 | 0.02 | 55 | 1005.5 |
| 20260506011404 | 70 | 207 | 4.3 | 10.4 | 0.00 | 0.02 | 0.02 | 55 | 1005.4 |
| 20260506010904 | 70 | 217 | 6.1 | 10.4 | 0.00 | 0.02 | 0.02 | 54 | 1005.4 |
| 20260506010404 | 70 | 212 | 6.1 | 13.0 | 0.00 | 0.02 | 0.02 | 54 | 1005.3 |
| 20260506005904 | 70 | 211 | 5.2 | 11.3 | 0.00 | 0.02 | 0.02 | 54 | 1005.3 |
| 20260506005405 | 71 | 204 | 5.2 | 10.4 | 0.00 | 0.02 | 0.02 | 53 | 1005.2 |
| 20260506004403 | 71 | 215 | 4.3 | 12.2 | 0.00 | 0.02 | 0.02 | 52 | 1005.0 |
| 20260506003904 | 71 | 218 | 5.2 | 10.4 | 0.00 | 0.02 | 0.02 | 50 | 1004.9 |
| 20260506003404 | 71 | 206 | 5.2 | 11.3 | 0.00 | 0.02 | 0.02 | 50 | 1004.8 |
| 20260506002904 | 72 | 210 | 7.0 | 12.2 | 0.00 | 0.02 | 0.02 | 50 | 1004.8 |
| 20260506002404 | 72 | 210 | 6.1 | 10.4 | 0.00 | 0.02 | 0.02 | 50 | 1004.7 |
| 20260506001904 | 72 | 202 | 7.0 | 11.3 | 0.00 | 0.02 | 0.02 | 50 | 1004.7 |
| 20260506001404 | 72 | 207 | 6.1 | 12.2 | 0.00 | 0.02 | 0.02 | 50 | 1004.5 |
| 20260506000904 | 72 | 209 | 7.8 | 12.2 | 0.00 | 0.02 | 0.02 | 49 | 1004.5 |
| 20260506000404 | 72 | 205 | 7.0 | 11.3 | 0.00 | 0.02 | 0.02 | 49 | 1004.4 |
| 20260505235904 | 72 | 207 | 7.0 | 13.9 | 0.00 | 0.02 | 0.02 | 49 | 1004.4 |
| 20260505235404 | 72 | 208 | 6.1 | 10.4 | 0.00 | 0.02 | 0.02 | 49 | 1004.3 |
| 20260505234904 | 73 | 199 | 7.8 | 13.9 | 0.00 | 0.02 | 0.02 | 49 | 1004.4 |
| 20260505234403 | 73 | 210 | 8.7 | 15.6 | 0.00 | 0.02 | 0.02 | 49 | 1004.3 |
| 20260505233905 | 73 | 213 | 7.0 | 12.2 | 0.00 | 0.02 | 0.02 | 49 | 1004.4 |
| 20260505232904 | 73 | 214 | 7.8 | 14.8 | 0.00 | 0.02 | 0.02 | 49 | 1004.3 |
| 20260505232404 | 73 | 222 | 7.8 | 13.9 | 0.00 | 0.02 | 0.02 | 48 | 1004.3 |